FW6620 Weather Reports


time (UTC)temp
F
wind
direction
speed
knots
gust
knots
rain 1hr
in
rain 24hr
in
rain mn
in
humidity
%
barometer
mb
20260502195045 72 0 0.0 1.7 0.00 0.27 0.12 59 1021.7
20260502194555 72 0 0.0 1.7 0.00 0.27 0.12 56 1021.8
20260502194047 72 0 0.0 3.5 0.00 0.27 0.12 57 1021.7
20260502193547 72 0 0.0 4.3 0.00 0.27 0.12 57 1021.8
20260502193106 72 40 0.9 4.3 0.00 0.27 0.12 57 1021.8
20260502192546 71 0 0.0 3.5 0.00 0.27 0.12 54 1022.0
20260502192046 71 110 0.0 6.1 0.00 0.27 0.12 56 1022.1
20260502191552 71 0 0.9 6.1 0.00 0.27 0.12 57 1022.0
20260502191048 71 25 0.9 3.5 0.00 0.27 0.12 60 1022.0
20260502190547 71 0 0.0 2.6 0.00 0.27 0.12 59 1022.0
20260502190052 71 0 0.0 2.6 0.00 0.27 0.12 58 1021.9
20260502185546 70 113 0.0 2.6 0.00 0.30 0.12 56 1022.1
20260502185046 70 0 0.0 2.6 0.00 0.30 0.12 58 1022.2
20260502184602 70 75 0.0 2.6 0.01 0.30 0.12 61 1022.2
20260502184045 70 0 0.0 2.6 0.01 0.30 0.12 61 1022.2
20260502183546 70 74 0.0 2.6 0.01 0.30 0.12 64 1022.2
20260502183052 70 0 0.0 1.7 0.01 0.30 0.12 63 1022.3
20260502182547 69 0 0.0 2.6 0.01 0.30 0.12 63 1022.4
20260502182046 69 0 0.0 2.6 0.01 0.30 0.12 66 1022.4
20260502181556 69 95 0.9 2.6 0.01 0.30 0.12 67 1022.4
20260502181047 69 99 0.0 2.6 0.01 0.30 0.12 62 1022.6
20260502180547 69 0 0.0 2.6 0.01 0.30 0.12 65 1022.7
20260502164046 64 0 0.0 1.7 0.01 0.35 0.11 73 1023.4
20260502163546 64 81 0.0 1.7 0.00 0.34 0.10 75 1023.5
20260502163058 63 0 0.0 2.6 0.01 0.34 0.10 78 1023.5
20260502162546 63 81 0.0 2.6 0.01 0.34 0.10 80 1023.5
20260502162045 62 0 0.0 2.6 0.01 0.34 0.10 76 1023.5
20260502161556 62 0 0.0 1.7 0.01 0.34 0.10 80 1023.6
20260502161045 62 81 0.0 1.7 0.01 0.34 0.10 84 1023.6
20260502160547 61 0 0.0 1.7 0.01 0.34 0.10 84 1023.7
20260502152047 57 0 0.0 0.9 0.01 0.36 0.09 95 1023.7
20260502151612 57 0 0.0 2.6 0.01 0.36 0.09 94 1023.6
20260502151046 57 0 0.0 2.6 0.01 0.36 0.09 96 1023.6
20260502150546 56 0 0.0 0.9 0.01 0.36 0.09 96 1023.5
20260502130546 51 0 0.0 0.9 0.00 0.45 0.07 98 1022.5
20260502123545 49 0 0.0 1.7 0.01 0.52 0.07 97 1022.1
20260502123048 49 0 0.0 1.7 0.01 0.52 0.07 97 1022.0
20260502122545 49 82 0.0 0.9 0.01 0.52 0.07 97 1021.9
20260502122046 49 0 0.0 0.9 0.01 0.52 0.07 97 1021.8
20260502121551 49 82 0.0 0.9 0.01 0.52 0.07 97 1021.7
20260502121046 49 0 0.0 0.9 0.01 0.52 0.07 97 1021.7
20260502120546 49 0 0.0 0.9 0.01 0.52 0.07 97 1021.4
20260502115547 49 0 0.0 0.9 0.00 0.61 0.06 97 1021.3
20260502115046 49 0 0.0 0.9 0.00 0.61 0.06 97 1021.2
20260502114559 49 0 0.0 0.9 0.01 0.61 0.06 97 1021.2
20260502114047 49 0 0.0 0.9 0.01 0.61 0.06 97 1020.9
20260502113547 49 0 0.0 1.7 0.01 0.61 0.06 97 1021.0
20260502113104 49 0 0.0 1.7 0.01 0.61 0.06 97 1020.9
20260502112546 49 0 0.0 0.9 0.01 0.61 0.06 97 1020.9
20260502112048 49 0 0.0 1.7 0.01 0.61 0.06 97 1020.8
20260502111603 49 0 0.0 1.7 0.01 0.61 0.06 97 1020.8
20260502111047 49 82 0.0 0.9 0.01 0.61 0.06 97 1020.8
20260502110548 49 0 0.0 0.9 0.01 0.61 0.06 97 1020.8
20260502110100 49 0 0.0 0.9 0.01 0.61 0.06 97 1020.7
20260502105549 49 0 0.0 0.0 0.01 0.70 0.06 97 1020.7
20260502105050 49 0 0.0 0.0 0.01 0.70 0.06 97 1020.7
20260502104607 49 0 0.0 0.0 0.00 0.69 0.05 97 1020.6
20260502104047 49 0 0.0 0.0 0.01 0.69 0.05 97 1020.5
20260502103549 50 0 0.0 0.0 0.01 0.69 0.05 97 1020.5
20260502103059 50 0 0.0 0.0 0.01 0.69 0.05 97 1020.4
20260502102552 50 0 0.0 0.9 0.01 0.69 0.05 97 1020.2
20260502102048 50 0 0.0 0.9 0.01 0.69 0.05 97 1020.2
20260502101604 50 0 0.0 0.9 0.01 0.69 0.05 97 1020.1
20260502101048 50 82 0.0 0.9 0.01 0.69 0.05 97 1020.0
20260502100548 50 0 0.0 0.9 0.01 0.69 0.05 97 1020.0
20260502091048 51 82 0.0 0.9 0.01 0.77 0.04 97 1019.4
20260502090549 51 82 0.0 0.9 0.01 0.77 0.04 97 1019.4
20260502071047 51 0 0.0 0.9 0.01 0.80 0.02 97 1019.1
20260502070546 51 0 0.0 0.9 0.01 0.80 0.02 97 1019.0
20260502070111 51 0 0.0 0.9 0.01 0.80 0.02 97 1019.0
20260502065546 51 0 0.0 0.9 0.01 0.80 0.02 97 1018.9
20260502065047 51 0 0.0 0.0 0.01 0.80 0.02 97 1018.9
20260502064552 51 0 0.0 0.0 0.01 0.80 0.02 97 1019.0
20260502064045 51 0 0.0 0.0 0.01 0.80 0.02 97 1018.9
20260502063545 51 0 0.0 0.9 0.01 0.79 0.01 97 1019.1
20260502063111 51 0 0.0 0.9 0.01 0.79 0.01 97 1019.1
20260502062549 51 0 0.0 0.9 0.01 0.79 0.01 97 1019.2
20260502062046 51 0 0.0 0.9 0.01 0.79 0.01 97 1019.2
20260502061554 51 0 0.0 0.0 0.01 0.79 0.01 97 1019.3
20260502061046 51 0 0.0 0.0 0.01 0.79 0.01 97 1019.3
20260502060546 52 0 0.0 0.9 0.01 0.79 0.01 97 1019.4
20260502060059 52 0 0.0 0.9 0.01 0.79 0.01 97 1019.4
20260502055546 52 0 0.0 0.9 0.01 0.79 0.01 97 1019.4
20260502055049 52 0 0.0 0.9 0.01 0.79 0.01 97 1019.4
20260502054602 52 0 0.0 0.9 0.01 0.79 0.01 97 1019.3
20260502054045 52 0 0.0 0.9 0.02 0.79 0.01 97 1019.3
20260502053545 52 0 0.0 0.9 0.01 0.78 0.00 97 1019.3
20260502053052 51 0 0.0 0.0 0.01 0.78 0.00 97 1019.1
20260502052545 52 0 0.0 0.0 0.01 0.78 0.00 97 1019.1
20260502052046 52 0 0.0 0.0 0.01 0.78 0.00 97 1019.1
20260502051553 52 0 0.0 0.0 0.01 0.78 0.00 97 1019.1
20260502051045 52 0 0.0 0.0 0.01 0.78 0.00 97 1019.1
20260502050545 52 0 0.0 0.0 0.01 0.78 0.00 96 1019.0
20260502050056 52 0 0.0 0.0 0.01 0.78 0.00 96 1019.1
20260502045545 52 0 0.0 0.0 0.01 0.78 0.78 96 1018.9
20260502045047 52 0 0.0 0.0 0.02 0.78 0.78 97 1018.9
20260502044546 52 0 0.0 0.0 0.01 0.77 0.77 97 1019.1
20260502044050 52 0 0.0 0.0 0.01 0.77 0.77 97 1019.1
20260502043547 52 0 0.0 0.0 0.01 0.77 0.77 97 1019.2
20260502043108 52 0 0.0 0.0 0.01 0.77 0.77 96 1019.2
20260502042548 53 0 0.0 0.0 0.01 0.77 0.77 96 1019.1
20260502042050 53 0 0.0 0.0 0.01 0.77 0.77 96 1019.2
20260502041622 53 0 0.0 0.9 0.01 0.77 0.77 97 1019.0
20260502041050 53 0 0.0 0.9 0.01 0.77 0.77 97 1019.0
20260502040549 53 0 0.0 0.9 0.02 0.77 0.77 96 1018.9
20260502040057 53 0 0.0 0.9 0.02 0.77 0.77 96 1019.0
20260502035548 53 0 0.0 0.9 0.02 0.78 0.77 96 1019.1
20260502035048 53 82 0.0 0.9 0.01 0.77 0.76 96 1019.1
20260502034552 53 0 0.0 0.9 0.01 0.77 0.76 97 1019.1
20260502034048 53 82 0.0 1.7 0.01 0.77 0.76 97 1019.2
20260502033548 53 0 0.0 1.7 0.01 0.77 0.76 97 1019.2
20260502033049 53 0 0.0 1.7 0.01 0.77 0.76 97 1019.2
20260502032548 53 82 0.0 1.7 0.01 0.77 0.76 97 1019.1
20260502032050 53 82 0.0 1.7 0.01 0.77 0.76 96 1019.1
20260502031553 53 82 0.0 1.7 0.02 0.77 0.76 96 1018.9
20260502031048 53 0 0.0 1.7 0.02 0.77 0.76 97 1018.7
20260502030548 53 82 0.0 1.7 0.01 0.76 0.75 97 1018.7
20260502030110 53 0 0.0 1.7 0.01 0.76 0.75 97 1018.5
20260502025548 53 82 0.0 1.7 0.01 0.76 0.75 97 1018.6
20260502025047 53 0 0.0 1.7 0.01 0.76 0.75 97 1018.3
20260502024604 53 0 0.0 1.7 0.01 0.76 0.75 97 1018.5
20260502024047 53 0 0.0 1.7 0.01 0.76 0.75 97 1018.3
20260502023547 53 0 0.0 1.7 0.01 0.76 0.75 97 1018.2
20260502023117 53 82 0.0 2.6 0.02 0.76 0.75 97 1018.2
20260502022549 53 0 0.0 2.6 0.02 0.76 0.75 97 1018.0
20260502022048 53 145 0.0 1.7 0.02 0.76 0.75 97 1017.9
20260502021552 53 0 0.0 1.7 0.01 0.75 0.74 97 1017.8
20260502021048 53 0 0.0 0.9 0.01 0.75 0.74 97 1017.7
20260502020547 53 0 0.0 0.9 0.01 0.75 0.74 97 1017.8
20260502020049 53 0 0.0 0.9 0.01 0.75 0.74 97 1017.7
20260502015549 53 0 0.0 0.9 0.01 0.75 0.74 97 1017.7
20260502015047 53 0 0.0 1.7 0.01 0.75 0.74 97 1017.5
20260502014603 53 0 0.0 2.6 0.02 0.75 0.74 97 1017.4
20260502014047 53 145 0.0 2.6 0.02 0.75 0.74 97 1017.4
20260502013547 53 0 0.0 2.6 0.02 0.75 0.74 97 1017.4
20260502013059 53 0 0.0 1.7 0.01 0.74 0.73 97 1017.2
20260502012547 53 0 0.0 2.6 0.01 0.74 0.73 97 1017.1
20260502012047 53 0 0.0 2.6 0.01 0.74 0.73 97 1017.1
20260502011604 53 147 0.0 1.7 0.01 0.74 0.73 97 1017.2
20260502011047 53 147 0.0 2.6 0.01 0.74 0.73 97 1016.9
20260502010548 53 150 0.0 2.6 0.01 0.74 0.73 97 1017.0
20260502010053 53 0 0.0 2.6 0.02 0.74 0.73 97 1016.8
20260502005547 53 150 0.0 2.6 0.02 0.74 0.73 97 1016.5
20260502005048 53 0 0.0 2.6 0.02 0.74 0.73 97 1016.4
20260502004555 53 0 0.0 2.6 0.01 0.73 0.72 97 1016.5
20260502004048 54 0 0.0 3.5 0.01 0.73 0.72 97 1016.2
20260502003546 54 149 0.0 5.2 0.01 0.73 0.72 97 1016.2
20260502003050 54 149 0.9 5.2 0.01 0.73 0.72 96 1016.0
20260502002547 54 0 0.9 4.3 0.01 0.73 0.72 97 1015.9
20260502002047 55 118 0.0 3.5 0.01 0.73 0.72 97 1015.8
20260502001558 55 0 0.9 3.5 0.02 0.73 0.72 97 1015.8
20260502001047 55 0 0.9 3.5 0.02 0.73 0.72 97 1015.6
20260502000547 55 112 0.0 2.6 0.02 0.73 0.72 97 1015.4
20260502000100 55 45 0.0 4.3 0.01 0.72 0.71 97 1015.5
20260501235550 55 45 0.9 4.3 0.01 0.72 0.71 97 1015.2
20260501235048 55 0 0.0 1.7 0.01 0.72 0.71 97 1014.7
20260501234549 55 102 0.0 1.7 0.01 0.72 0.71 97 1014.9
20260501234048 55 145 0.0 1.7 0.01 0.72 0.71 97 1015.2
20260501233548 55 0 0.0 1.7 0.01 0.72 0.71 97 1015.6
20260501233109 55 145 0.0 1.7 0.02 0.72 0.71 97 1015.8
20260501232547 55 145 0.0 1.7 0.02 0.72 0.71 97 1015.5
20260501232049 55 0 0.0 3.5 0.02 0.72 0.71 97 1015.5
20260501231613 55 146 0.9 3.5 0.01 0.71 0.70 97 1015.2
20260501231048 56 94 0.0 3.5 0.01 0.71 0.70 97 1015.1
20260501230548 56 0 0.9 2.6 0.01 0.71 0.70 97 1015.0
20260501230117 56 105 0.0 1.7 0.01 0.71 0.70 97 1014.8
20260501225548 56 105 0.0 1.7 0.01 0.71 0.70 97 1014.6
20260501225046 56 0 0.0 1.7 0.02 0.71 0.70 97 1014.6
20260501224557 56 105 0.0 1.7 0.02 0.71 0.70 97 1014.7
20260501224118 56 0 0.0 1.7 0.02 0.71 0.70 97 1014.7
20260501223547 56 0 0.0 1.7 0.02 0.71 0.70 97 1014.6
20260501223055 57 0 0.0 1.7 0.01 0.70 0.69 97 1014.7
20260501222548 57 26 0.0 2.6 0.01 0.70 0.69 97 1014.5
20260501222048 57 26 0.0 3.5 0.01 0.70 0.69 97 1014.1
20260501221602 57 138 0.9 3.5 0.01 0.70 0.69 97 1014.0
20260501221047 57 118 0.0 1.7 0.01 0.70 0.69 97 1014.2
20260501220548 57 118 0.0 1.7 0.02 0.70 0.69 97 1014.5
20260501220100 57 118 0.0 1.7 0.02 0.70 0.69 97 1014.6
20260501215550 57 0 0.0 1.7 0.02 0.70 0.69 97 1014.7
20260501215047 57 118 0.0 1.7 0.01 0.69 0.68 97 1014.7
20260501214551 57 0 0.0 1.7 0.01 0.69 0.68 97 1014.3
20260501214047 57 118 0.0 1.7 0.01 0.69 0.68 97 1013.9
20260501213547 57 118 0.0 2.6 0.01 0.69 0.68 97 1013.7
20260501213051 57 118 0.0 2.6 0.02 0.69 0.68 97 1014.0
20260501212548 57 138 0.0 2.6 0.02 0.69 0.68 97 1014.2
20260501212049 57 0 0.0 1.7 0.02 0.69 0.68 97 1013.9
20260501211548 57 137 0.0 2.6 0.02 0.69 0.68 97 1013.7
20260501211048 57 0 0.0 3.5 0.02 0.69 0.68 97 1013.6
20260501210548 57 139 0.0 3.5 0.01 0.68 0.67 97 1013.4
20260501210051 57 138 0.9 3.5 0.02 0.68 0.67 97 1013.1
20260501205550 58 129 0.0 3.5 0.02 0.68 0.67 97 1012.9
20260501205048 58 0 0.0 2.6 0.02 0.68 0.67 97 1013.2
20260501204554 58 0 0.0 4.3 0.02 0.68 0.67 97 1013.1
20260501204049 58 0 0.9 4.3 0.02 0.68 0.67 97 1012.9
20260501203547 58 0 0.9 3.5 0.02 0.68 0.67 97 1012.1
20260501203054 58 0 0.9 2.6 0.02 0.67 0.66 97 1012.6
20260501202547 58 0 0.0 3.5 0.02 0.67 0.66 97 1012.8
20260501202047 58 162 0.0 3.5 0.02 0.67 0.66 97 1012.9
20260501201550 58 133 0.0 3.5 0.02 0.67 0.66 98 1012.3
20260501201048 58 133 0.9 2.6 0.02 0.67 0.66 98 1011.9
20260501200546 58 0 0.0 2.6 0.03 0.67 0.66 98 1012.0
20260501200051 58 0 0.0 2.6 0.02 0.66 0.65 97 1012.0
20260501195548 58 174 0.9 2.6 0.02 1.16 0.65 97 1012.3